Time,TemperatureF,DewpointF,PressureIn,WindDirection,WindDirectionDegrees,WindSpeedMPH,WindSpeedGustMPH,Humidity,HourlyPrecipIn,Conditions,Clouds,dailyrainin,SoftwareType,DateUTC
2013-10-21 00:02:00,43.0,30.9,30.09,SW,225,0.0,3.0,62,0.00,,,0.00,meteohub,2013-10-21 04:02:00,
2013-10-21 00:07:00,42.1,30.4,30.09,SW,225,1.0,2.0,63,0.00,,,0.00,meteohub,2013-10-21 04:07:00,
2013-10-21 00:12:00,41.5,30.4,30.09,SW,225,2.0,2.0,64,0.00,,,0.00,meteohub,2013-10-21 04:12:00,
2013-10-21 00:17:00,41.4,30.2,30.09,SSW,202,0.0,2.0,64,0.00,,,0.00,meteohub,2013-10-21 04:17:00,
2013-10-21 00:22:00,41.9,32.2,30.09,ESE,112,0.0,2.0,68,0.00,,,0.00,meteohub,2013-10-21 04:22:00,
2013-10-21 00:27:00,42.4,32.4,30.09,SW,225,0.0,2.0,67,0.00,,,0.00,meteohub,2013-10-21 04:27:00,
2013-10-21 00:32:00,42.8,32.2,30.09,SW,225,2.0,2.0,66,0.00,,,0.00,meteohub,2013-10-21 04:32:00,
2013-10-21 00:37:00,43.2,32.2,30.12,SSW,202,2.0,2.0,65,0.00,,,0.00,meteohub,2013-10-21 04:37:00,
2013-10-21 00:42:00,43.3,32.4,30.12,SSW,202,1.0,2.0,65,0.00,,,0.00,meteohub,2013-10-21 04:42:00,
2013-10-21 00:47:00,43.3,32.4,30.12,East,90,0.0,3.0,65,0.00,,,0.00,meteohub,2013-10-21 04:47:00,
2013-10-21 00:52:00,43.3,32.4,30.12,NNE,22,0.0,3.0,65,0.00,,,0.00,meteohub,2013-10-21 04:52:00,
2013-10-21 00:57:00,43.3,32.4,30.12,ENE,68,0.0,3.0,65,0.00,,,0.00,meteohub,2013-10-21 04:57:00,
2013-10-21 01:02:00,43.2,32.2,30.12,SW,225,0.0,2.0,65,0.00,,,0.00,meteohub,2013-10-21 05:02:00,
2013-10-21 01:07:00,43.2,32.2,30.12,SW,225,0.0,1.0,65,0.00,,,0.00,meteohub,2013-10-21 05:07:00,
2013-10-21 01:12:00,43.0,32.0,30.12,ESE,112,2.0,2.0,65,0.00,,,0.00,meteohub,2013-10-21 05:12:00,
2013-10-21 01:17:00,43.0,32.0,30.12,SSW,202,2.0,3.0,65,0.00,,,0.00,meteohub,2013-10-21 05:17:00,
2013-10-21 01:22:00,43.2,32.2,30.12,SSW,202,1.0,3.0,65,0.00,,,0.00,meteohub,2013-10-21 05:22:00,
2013-10-21 01:27:00,43.2,32.5,30.12,South,180,1.0,3.0,66,0.00,,,0.00,meteohub,2013-10-21 05:27:00,
2013-10-21 01:32:00,43.0,32.0,30.12,SSW,202,1.0,3.0,65,0.00,,,0.00,meteohub,2013-10-21 05:32:00,
2013-10-21 01:37:00,41.9,31.5,30.12,SSW,202,1.0,3.0,66,0.00,,,0.00,meteohub,2013-10-21 05:37:00,
2013-10-21 01:42:00,41.7,31.3,30.12,SW,225,2.0,3.0,66,0.00,,,0.00,meteohub,2013-10-21 05:42:00,
2013-10-21 01:47:00,40.8,31.1,30.12,SW,225,0.0,2.0,68,0.00,,,0.00,meteohub,2013-10-21 05:47:00,
2013-10-21 01:52:00,40.6,30.2,30.12,SW,225,0.0,2.0,66,0.00,,,0.00,meteohub,2013-10-21 05:52:00,
2013-10-21 01:57:00,40.3,30.2,30.12,SW,225,0.0,2.0,67,0.00,,,0.00,meteohub,2013-10-21 05:57:00,
2013-10-21 02:02:00,40.3,30.9,30.12,SSW,202,0.0,2.0,69,0.00,,,0.00,meteohub,2013-10-21 06:02:00,
2013-10-21 02:07:00,40.3,30.9,30.12,SW,225,1.0,1.0,69,0.00,,,0.00,meteohub,2013-10-21 06:07:00,
2013-10-21 02:12:00,40.1,31.1,30.12,WSW,248,1.0,2.0,70,0.00,,,0.00,meteohub,2013-10-21 06:12:00,
2013-10-21 02:17:00,40.1,31.1,30.12,SSW,202,2.0,2.0,70,0.00,,,0.00,meteohub,2013-10-21 06:17:00,
2013-10-21 02:22:00,40.5,32.2,30.12,SSE,158,2.0,2.0,72,0.00,,,0.00,meteohub,2013-10-21 06:22:00,
2013-10-21 02:27:00,41.9,34.0,30.12,SSW,202,1.0,2.0,73,0.00,,,0.00,meteohub,2013-10-21 06:27:00,
2013-10-21 02:32:00,41.9,34.2,30.12,ENE,68,0.0,2.0,74,0.00,,,0.00,meteohub,2013-10-21 06:32:00,
2013-10-21 02:37:00,42.8,34.3,30.09,SE,135,1.0,3.0,72,0.00,,,0.00,meteohub,2013-10-21 06:37:00,
2013-10-21 02:42:00,43.3,34.5,30.09,WNW,292,0.0,3.0,71,0.00,,,0.00,meteohub,2013-10-21 06:42:00,
2013-10-21 02:47:00,43.5,34.0,30.09,SSW,202,1.0,3.0,69,0.00,,,0.00,meteohub,2013-10-21 06:47:00,
2013-10-21 02:52:00,43.9,34.0,30.09,SSW,202,2.0,3.0,68,0.00,,,0.00,meteohub,2013-10-21 06:52:00,
2013-10-21 02:57:00,44.1,33.8,30.09,SW,225,1.0,3.0,67,0.00,,,0.00,meteohub,2013-10-21 06:57:00,
2013-10-21 03:02:00,44.2,33.6,30.09,WSW,248,1.0,3.0,66,0.00,,,0.00,meteohub,2013-10-21 07:02:00,
2013-10-21 03:07:00,44.4,33.8,30.12,WSW,248,0.0,2.0,66,0.00,,,0.00,meteohub,2013-10-21 07:07:00,
2013-10-21 03:12:00,44.6,33.6,30.12,SW,225,2.0,2.0,65,0.00,,,0.00,meteohub,2013-10-21 07:12:00,
2013-10-21 03:17:00,44.6,33.3,30.12,West,270,0.0,2.0,64,0.00,,,0.00,meteohub,2013-10-21 07:17:00,
2013-10-21 03:22:00,44.8,33.4,30.12,NNW,338,0.0,2.0,64,0.00,,,0.00,meteohub,2013-10-21 07:22:00,
2013-10-21 03:27:00,44.8,33.4,30.12,SSW,202,0.0,2.0,64,0.00,,,0.00,meteohub,2013-10-21 07:27:00,
2013-10-21 03:32:00,45.1,33.3,30.12,WSW,248,2.0,2.0,63,0.00,,,0.00,meteohub,2013-10-21 07:32:00,
2013-10-21 03:37:00,45.1,33.3,30.12,WSW,248,1.0,2.0,63,0.00,,,0.00,meteohub,2013-10-21 07:37:00,
2013-10-21 03:42:00,45.1,33.3,30.12,ESE,112,1.0,2.0,63,0.00,,,0.00,meteohub,2013-10-21 07:42:00,
2013-10-21 03:47:00,45.1,33.3,30.12,SSE,158,2.0,3.0,63,0.00,,,0.00,meteohub,2013-10-21 07:47:00,
2013-10-21 03:52:00,44.8,32.9,30.12,ENE,68,0.0,3.0,63,0.00,,,0.00,meteohub,2013-10-21 07:52:00,
2013-10-21 03:57:00,44.8,32.9,30.12,East,90,0.0,3.0,63,0.00,,,0.00,meteohub,2013-10-21 07:57:00,
2013-10-21 04:02:00,44.6,32.9,30.12,SW,225,2.0,3.0,63,0.00,,,0.00,meteohub,2013-10-21 08:02:00,
2013-10-21 04:07:00,44.4,33.1,30.12,SSW,202,2.0,2.0,64,0.00,,,0.00,meteohub,2013-10-21 08:07:00,
2013-10-21 04:12:00,44.2,33.6,30.12,SW,225,2.0,2.0,66,0.00,,,0.00,meteohub,2013-10-21 08:12:00,
2013-10-21 04:17:00,43.7,32.7,30.12,SSE,158,2.0,2.0,65,0.00,,,0.00,meteohub,2013-10-21 08:17:00,
2013-10-21 04:22:00,43.7,33.1,30.12,SSE,158,3.0,3.0,66,0.00,,,0.00,meteohub,2013-10-21 08:22:00,
2013-10-21 04:27:00,43.9,33.3,30.12,SW,225,1.0,3.0,66,0.00,,,0.00,meteohub,2013-10-21 08:27:00,
2013-10-21 04:32:00,43.2,32.5,30.12,SW,225,0.0,3.0,66,0.00,,,0.00,meteohub,2013-10-21 08:32:00,
2013-10-21 04:37:00,42.3,31.8,30.12,SW,225,0.0,3.0,66,0.00,,,0.00,meteohub,2013-10-21 08:37:00,
2013-10-21 04:42:00,41.7,32.0,30.12,SW,225,0.0,2.0,68,0.00,,,0.00,meteohub,2013-10-21 08:42:00,
2013-10-21 04:47:00,41.4,31.6,30.12,West,270,0.0,1.0,68,0.00,,,0.00,meteohub,2013-10-21 08:47:00,
2013-10-21 04:52:00,41.0,32.0,30.12,WNW,292,0.0,0.0,70,0.00,,,0.00,meteohub,2013-10-21 08:52:00,
2013-10-21 04:57:00,41.0,31.6,30.12,WSW,248,0.0,0.0,69,0.00,,,0.00,meteohub,2013-10-21 08:57:00,
2013-10-21 05:02:00,40.8,32.5,30.12,South,180,0.0,0.0,72,0.00,,,0.00,meteohub,2013-10-21 09:02:00,
2013-10-21 05:07:00,40.8,32.5,30.14,South,180,0.0,0.0,72,0.00,,,0.00,meteohub,2013-10-21 09:07:00,
2013-10-21 05:12:00,40.5,32.5,30.14,South,180,0.0,0.0,73,0.00,,,0.00,meteohub,2013-10-21 09:12:00,
2013-10-21 05:17:00,40.3,32.4,30.14,South,180,0.0,0.0,73,0.00,,,0.00,meteohub,2013-10-21 09:17:00,
2013-10-21 05:22:00,40.1,32.2,30.14,South,180,0.0,0.0,73,0.00,,,0.00,meteohub,2013-10-21 09:22:00,
2013-10-21 05:27:00,39.9,31.6,30.14,SW,225,2.0,0.0,72,0.00,,,0.00,meteohub,2013-10-21 09:27:00,
2013-10-21 05:32:00,39.9,32.0,30.14,SSW,202,0.0,2.0,73,0.00,,,0.00,meteohub,2013-10-21 09:32:00,
2013-10-21 05:37:00,39.6,32.0,30.14,SSE,158,0.0,2.0,74,0.00,,,0.00,meteohub,2013-10-21 09:37:00,
2013-10-21 05:42:00,39.4,31.8,30.14,SSE,158,0.0,2.0,74,0.00,,,0.00,meteohub,2013-10-21 09:42:00,
2013-10-21 05:47:00,39.2,31.3,30.14,SSW,202,0.0,0.0,73,0.00,,,0.00,meteohub,2013-10-21 09:47:00,
2013-10-21 05:52:00,38.8,30.9,30.14,SSW,202,0.0,0.0,73,0.00,,,0.00,meteohub,2013-10-21 09:52:00,
2013-10-21 05:57:00,38.5,31.3,30.14,South,180,0.0,0.0,75,0.00,,,0.00,meteohub,2013-10-21 09:57:00,
2013-10-21 06:02:00,38.5,31.6,30.14,South,180,0.0,0.0,76,0.00,,,0.00,meteohub,2013-10-21 10:02:00,
2013-10-21 06:07:00,38.5,31.6,30.14,South,180,0.0,0.0,76,0.00,,,0.00,meteohub,2013-10-21 10:07:00,
2013-10-21 06:12:00,38.5,31.3,30.14,SSW,202,0.0,0.0,75,0.00,,,0.00,meteohub,2013-10-21 10:12:00,
2013-10-21 06:17:00,38.3,31.8,30.14,WSW,248,0.0,1.0,77,0.00,,,0.00,meteohub,2013-10-21 10:17:00,
2013-10-21 06:22:00,38.3,31.5,30.17,WSW,248,0.0,1.0,76,0.00,,,0.00,meteohub,2013-10-21 10:22:00,
2013-10-21 06:27:00,38.1,31.6,30.17,SW,225,0.0,1.0,77,0.00,,,0.00,meteohub,2013-10-21 10:27:00,
2013-10-21 06:32:00,37.9,31.5,30.17,SW,225,0.0,1.0,77,0.00,,,0.00,meteohub,2013-10-21 10:32:00,
2013-10-21 06:37:00,37.9,31.5,30.17,SSW,202,0.0,1.0,77,0.00,,,0.00,meteohub,2013-10-21 10:37:00,
2013-10-21 06:42:00,37.9,31.5,30.17,SW,225,1.0,1.0,77,0.00,,,0.00,meteohub,2013-10-21 10:42:00,
2013-10-21 06:47:00,37.9,31.6,30.17,SW,225,1.0,1.0,78,0.00,,,0.00,meteohub,2013-10-21 10:47:00,
2013-10-21 06:52:00,37.9,31.6,30.17,SW,225,1.0,1.0,78,0.00,,,0.00,meteohub,2013-10-21 10:52:00,
2013-10-21 06:57:00,37.9,31.6,30.17,WSW,248,0.0,1.0,78,0.00,,,0.00,meteohub,2013-10-21 10:57:00,
2013-10-21 07:02:00,37.8,31.5,30.17,SW,225,0.0,1.0,78,0.00,,,0.00,meteohub,2013-10-21 11:02:00,
2013-10-21 07:07:00,37.6,31.3,30.17,SW,225,1.0,1.0,78,0.00,,,0.00,meteohub,2013-10-21 11:07:00,
2013-10-21 07:12:00,37.6,31.3,30.17,South,180,0.0,1.0,78,0.00,,,0.00,meteohub,2013-10-21 11:12:00,
2013-10-21 07:17:00,37.6,31.6,30.17,SW,225,1.0,2.0,79,0.00,,,0.00,meteohub,2013-10-21 11:17:00,
2013-10-21 07:22:00,37.6,31.3,30.14,SSW,202,0.0,2.0,78,0.00,,,0.00,meteohub,2013-10-21 11:22:00,
2013-10-21 07:27:00,37.6,31.6,30.14,SW,225,0.0,2.0,79,0.00,,,0.00,meteohub,2013-10-21 11:27:00,
2013-10-21 07:32:00,37.6,31.6,30.14,SSW,202,1.0,2.0,79,0.00,,,0.00,meteohub,2013-10-21 11:32:00,
2013-10-21 07:37:00,37.6,31.6,30.17,SSW,202,1.0,2.0,79,0.00,,,0.00,meteohub,2013-10-21 11:37:00,
2013-10-21 07:42:00,37.6,31.6,30.17,WSW,248,1.0,2.0,79,0.00,,,0.00,meteohub,2013-10-21 11:42:00,
2013-10-21 07:47:00,37.8,32.5,30.17,SW,225,2.0,2.0,81,0.00,,,0.00,meteohub,2013-10-21 11:47:00,
2013-10-21 07:52:00,37.9,32.4,30.17,WSW,248,2.0,2.0,80,0.00,,,0.00,meteohub,2013-10-21 11:52:00,
2013-10-21 07:57:00,37.9,32.4,30.17,SW,225,2.0,2.0,80,0.00,,,0.00,meteohub,2013-10-21 11:57:00,
2013-10-21 08:02:00,38.1,32.9,30.17,SW,225,2.0,2.0,81,0.00,,,0.00,meteohub,2013-10-21 12:02:00,
2013-10-21 08:07:00,38.3,33.1,30.17,SW,225,2.0,2.0,81,0.00,,,0.00,meteohub,2013-10-21 12:07:00,
2013-10-21 08:12:00,38.5,32.9,30.17,SSW,202,1.0,3.0,80,0.00,,,0.00,meteohub,2013-10-21 12:12:00,
2013-10-21 08:17:00,38.8,33.4,30.17,SW,225,2.0,3.0,81,0.00,,,0.00,meteohub,2013-10-21 12:17:00,
2013-10-21 08:22:00,39.6,34.5,30.14,SSW,202,2.0,3.0,82,0.00,,,0.00,meteohub,2013-10-21 12:22:00,
2013-10-21 08:27:00,40.1,36.0,30.14,WSW,248,2.0,2.0,85,0.00,,,0.00,meteohub,2013-10-21 12:27:00,
2013-10-21 08:32:00,41.5,37.0,30.14,South,180,2.0,2.0,84,0.00,,,0.00,meteohub,2013-10-21 12:32:00,
2013-10-21 08:37:00,42.3,37.2,30.17,SSW,202,2.0,3.0,82,0.00,,,0.00,meteohub,2013-10-21 12:37:00,
2013-10-21 08:42:00,43.2,36.9,30.17,SW,225,0.0,3.0,78,0.00,,,0.00,meteohub,2013-10-21 12:42:00,
2013-10-21 08:47:00,44.1,36.7,30.17,ESE,112,2.0,2.0,75,0.00,,,0.00,meteohub,2013-10-21 12:47:00,
2013-10-21 08:52:00,44.6,36.5,30.17,SSW,202,2.0,3.0,73,0.00,,,0.00,meteohub,2013-10-21 12:52:00,
2013-10-21 08:57:00,45.3,36.5,30.17,NE,45,1.0,3.0,71,0.00,,,0.00,meteohub,2013-10-21 12:57:00,
2013-10-21 09:02:00,46.2,36.7,30.17,SW,225,1.0,3.0,69,0.00,,,0.00,meteohub,2013-10-21 13:02:00,
2013-10-21 09:07:00,47.1,36.3,30.17,NNW,338,1.0,3.0,66,0.00,,,0.00,meteohub,2013-10-21 13:07:00,
2013-10-21 09:12:00,48.0,36.9,30.17,East,90,0.0,4.0,65,0.00,,,0.00,meteohub,2013-10-21 13:12:00,
2013-10-21 09:17:00,49.3,37.6,30.17,SW,225,0.0,4.0,64,0.00,,,0.00,meteohub,2013-10-21 13:17:00,
2013-10-21 09:22:00,50.2,38.1,30.17,SSW,202,3.0,4.0,63,0.00,,,0.00,meteohub,2013-10-21 13:22:00,
2013-10-21 09:27:00,50.7,36.9,30.17,SSW,202,2.0,4.0,59,0.00,,,0.00,meteohub,2013-10-21 13:27:00,
2013-10-21 09:32:00,51.6,38.3,30.17,SW,225,0.0,4.0,60,0.00,,,0.00,meteohub,2013-10-21 13:32:00,
2013-10-21 09:37:00,52.0,37.2,30.17,South,180,0.0,4.0,57,0.00,,,0.00,meteohub,2013-10-21 13:37:00,
2013-10-21 09:42:00,52.9,38.5,30.17,WSW,248,1.0,3.0,58,0.00,,,0.00,meteohub,2013-10-21 13:42:00,
2013-10-21 09:47:00,53.6,38.8,30.17,South,180,0.0,4.0,57,0.00,,,0.00,meteohub,2013-10-21 13:47:00,
2013-10-21 09:52:00,54.5,39.2,30.17,West,270,3.0,4.0,56,0.00,,,0.00,meteohub,2013-10-21 13:52:00,
2013-10-21 09:57:00,55.2,39.7,30.17,WNW,292,1.0,3.0,56,0.00,,,0.00,meteohub,2013-10-21 13:57:00,
2013-10-21 10:02:00,55.9,39.6,30.17,SW,225,2.0,3.0,54,0.00,,,0.00,meteohub,2013-10-21 14:02:00,
2013-10-21 10:07:00,56.7,39.7,30.17,NW,315,2.0,3.0,53,0.00,,,0.00,meteohub,2013-10-21 14:07:00,
2013-10-21 10:12:00,57.4,39.9,30.17,WSW,248,2.0,3.0,52,0.00,,,0.00,meteohub,2013-10-21 14:12:00,
2013-10-21 10:17:00,58.3,40.8,30.17,SSE,158,2.0,4.0,52,0.00,,,0.00,meteohub,2013-10-21 14:17:00,
2013-10-21 10:22:00,59.0,40.5,30.17,WSW,248,1.0,4.0,50,0.00,,,0.00,meteohub,2013-10-21 14:22:00,
2013-10-21 10:27:00,59.4,39.7,30.17,SW,225,2.0,5.0,48,0.00,,,0.00,meteohub,2013-10-21 14:27:00,
2013-10-21 10:32:00,60.4,40.6,30.17,SW,225,2.0,5.0,48,0.00,,,0.00,meteohub,2013-10-21 14:32:00,
2013-10-21 10:37:00,61.3,41.0,30.17,SW,225,4.0,5.0,47,0.00,,,0.00,meteohub,2013-10-21 14:37:00,
2013-10-21 10:42:00,61.9,40.3,30.17,West,270,1.0,6.0,45,0.00,,,0.00,meteohub,2013-10-21 14:42:00,
2013-10-21 10:47:00,62.1,40.5,30.17,NNW,338,0.0,6.0,45,0.00,,,0.00,meteohub,2013-10-21 14:47:00,
2013-10-21 10:52:00,62.1,39.9,30.14,NW,315,1.0,4.0,44,0.00,,,0.00,meteohub,2013-10-21 14:52:00,
2013-10-21 10:57:00,62.4,37.8,30.14,SSE,158,2.0,4.0,40,0.00,,,0.00,meteohub,2013-10-21 14:57:00,
2013-10-21 11:02:00,63.7,40.1,30.14,WSW,248,2.0,4.0,42,0.00,,,0.00,meteohub,2013-10-21 15:02:00,
2013-10-21 11:07:00,64.0,40.5,30.17,SW,225,1.0,5.0,42,0.00,,,0.00,meteohub,2013-10-21 15:07:00,
2013-10-21 11:12:00,64.0,39.9,30.17,WSW,248,1.0,5.0,41,0.00,,,0.00,meteohub,2013-10-21 15:12:00,
2013-10-21 11:17:00,64.6,39.7,30.17,ESE,112,0.0,4.0,40,0.00,,,0.00,meteohub,2013-10-21 15:17:00,
2013-10-21 11:22:00,65.1,39.6,30.17,NW,315,1.0,4.0,39,0.00,,,0.00,meteohub,2013-10-21 15:22:00,
2013-10-21 11:27:00,65.3,39.0,30.17,WNW,292,4.0,4.0,38,0.00,,,0.00,meteohub,2013-10-21 15:27:00,
2013-10-21 11:32:00,65.7,39.4,30.17,West,270,4.0,9.0,38,0.00,,,0.00,meteohub,2013-10-21 15:32:00,
2013-10-21 11:37:00,65.8,39.6,30.17,NW,315,3.0,9.0,38,0.00,,,0.00,meteohub,2013-10-21 15:37:00,
2013-10-21 11:42:00,66.4,40.1,30.17,WNW,292,2.0,9.0,38,0.00,,,0.00,meteohub,2013-10-21 15:42:00,
2013-10-21 11:47:00,66.9,39.9,30.17,NW,315,3.0,6.0,37,0.00,,,0.00,meteohub,2013-10-21 15:47:00,
2013-10-21 11:52:00,66.9,39.9,30.17,SSW,202,3.0,6.0,37,0.00,,,0.00,meteohub,2013-10-21 15:52:00,
2013-10-21 11:57:00,67.1,39.2,30.17,NW,315,4.0,6.0,36,0.00,,,0.00,meteohub,2013-10-21 15:57:00,
2013-10-21 12:02:00,67.1,38.5,30.17,West,270,3.0,9.0,35,0.00,,,0.00,meteohub,2013-10-21 16:02:00,
2013-10-21 12:07:00,67.1,38.5,30.17,WNW,292,5.0,12.0,35,0.00,,,0.00,meteohub,2013-10-21 16:07:00,
2013-10-21 12:12:00,67.1,38.5,30.17,North,0,3.0,12.0,35,0.00,,,0.00,meteohub,2013-10-21 16:12:00,
2013-10-21 12:17:00,66.9,38.5,30.17,NNW,338,2.0,6.0,35,0.00,,,0.00,meteohub,2013-10-21 16:17:00,
2013-10-21 12:22:00,66.0,37.6,30.17,North,0,4.0,5.0,35,0.00,,,0.00,meteohub,2013-10-21 16:22:00,
2013-10-21 12:27:00,66.4,37.9,30.17,WNW,292,3.0,5.0,35,0.00,,,0.00,meteohub,2013-10-21 16:27:00,
2013-10-21 12:32:00,66.2,37.8,30.17,NW,315,2.0,7.0,35,0.00,,,0.00,meteohub,2013-10-21 16:32:00,
2013-10-21 12:37:00,66.0,37.6,30.14,NNW,338,2.0,7.0,35,0.00,,,0.00,meteohub,2013-10-21 16:37:00,
2013-10-21 12:42:00,66.0,37.6,30.14,NW,315,2.0,7.0,35,0.00,,,0.00,meteohub,2013-10-21 16:42:00,
2013-10-21 12:47:00,65.5,37.2,30.14,NNW,338,4.0,5.0,35,0.00,,,0.00,meteohub,2013-10-21 16:47:00,
2013-10-21 12:52:00,64.8,36.5,30.14,NW,315,7.0,7.0,35,0.00,,,0.00,meteohub,2013-10-21 16:52:00,
2013-10-21 12:57:00,64.8,36.5,30.14,NNW,338,3.0,7.0,35,0.00,,,0.00,meteohub,2013-10-21 16:57:00,
2013-10-21 13:02:00,64.8,36.5,30.14,NNW,338,4.0,7.0,35,0.00,,,0.00,meteohub,2013-10-21 17:02:00,
2013-10-21 13:07:00,64.2,36.7,30.12,NNW,338,2.0,7.0,36,0.00,,,0.00,meteohub,2013-10-21 17:07:00,
2013-10-21 13:12:00,63.9,36.5,30.12,SE,135,2.0,5.0,36,0.00,,,0.00,meteohub,2013-10-21 17:12:00,
2013-10-21 13:17:00,64.4,36.9,30.12,WNW,292,0.0,5.0,36,0.00,,,0.00,meteohub,2013-10-21 17:17:00,
2013-10-21 13:22:00,64.8,37.2,30.12,ESE,112,1.0,4.0,36,0.00,,,0.00,meteohub,2013-10-21 17:22:00,
2013-10-21 13:27:00,64.9,37.4,30.12,SSW,202,3.0,5.0,36,0.00,,,0.00,meteohub,2013-10-21 17:27:00,
2013-10-21 13:32:00,65.1,36.9,30.12,ESE,112,2.0,6.0,35,0.00,,,0.00,meteohub,2013-10-21 17:32:00,
2013-10-21 13:42:00,65.5,37.2,30.09,NNW,338,1.0,10.0,35,0.00,,,0.00,meteohub,2013-10-21 17:42:00,
2013-10-21 13:47:00,65.7,37.2,30.09,WNW,292,3.0,5.0,35,0.00,,,0.00,meteohub,2013-10-21 17:47:00,
2013-10-21 13:52:00,65.7,37.2,30.12,SW,225,3.0,5.0,35,0.00,,,0.00,meteohub,2013-10-21 17:52:00,
2013-10-21 13:57:00,65.5,37.2,30.12,NNW,338,1.0,5.0,35,0.00,,,0.00,meteohub,2013-10-21 17:57:00,
2013-10-21 14:02:00,65.3,37.0,30.12,WSW,248,2.0,5.0,35,0.00,,,0.00,meteohub,2013-10-21 18:02:00,
2013-10-21 14:07:00,65.3,37.0,30.12,WSW,248,6.0,9.0,35,0.00,,,0.00,meteohub,2013-10-21 18:07:00,
2013-10-21 14:12:00,65.7,37.2,30.12,SW,225,2.0,9.0,35,0.00,,,0.00,meteohub,2013-10-21 18:12:00,
2013-10-21 14:17:00,65.7,37.2,30.12,WSW,248,3.0,9.0,35,0.00,,,0.00,meteohub,2013-10-21 18:17:00,
2013-10-21 14:22:00,65.5,37.2,30.09,West,270,2.0,6.0,35,0.00,,,0.00,meteohub,2013-10-21 18:22:00,
2013-10-21 14:27:00,65.5,37.2,30.09,SW,225,4.0,6.0,35,0.00,,,0.00,meteohub,2013-10-21 18:27:00,
2013-10-21 14:32:00,65.3,37.0,30.09,West,270,2.0,6.0,35,0.00,,,0.00,meteohub,2013-10-21 18:32:00,
2013-10-21 14:37:00,65.1,36.9,30.09,WSW,248,5.0,6.0,35,0.00,,,0.00,meteohub,2013-10-21 18:37:00,
2013-10-21 14:42:00,65.1,36.9,30.09,NW,315,1.0,6.0,35,0.00,,,0.00,meteohub,2013-10-21 18:42:00,
2013-10-21 14:47:00,64.8,36.5,30.09,WNW,292,0.0,6.0,35,0.00,,,0.00,meteohub,2013-10-21 18:47:00,
2013-10-21 14:52:00,64.8,36.5,30.12,WSW,248,5.0,6.0,35,0.00,,,0.00,meteohub,2013-10-21 18:52:00,
2013-10-21 14:57:00,64.8,36.5,30.12,NW,315,3.0,7.0,35,0.00,,,0.00,meteohub,2013-10-21 18:57:00,
2013-10-21 15:02:00,64.8,36.5,30.12,West,270,1.0,7.0,35,0.00,,,0.00,meteohub,2013-10-21 19:02:00,
2013-10-21 15:07:00,64.8,36.5,30.09,NW,315,2.0,7.0,35,0.00,,,0.00,meteohub,2013-10-21 19:07:00,
2013-10-21 15:12:00,64.4,36.1,30.09,SSW,202,1.0,5.0,35,0.00,,,0.00,meteohub,2013-10-21 19:12:00,
2013-10-21 15:17:00,64.9,36.0,30.09,West,270,4.0,4.0,34,0.00,,,0.00,meteohub,2013-10-21 19:17:00,
2013-10-21 15:22:00,65.3,36.3,30.12,NW,315,3.0,8.0,34,0.00,,,0.00,meteohub,2013-10-21 19:22:00,
2013-10-21 15:27:00,65.5,36.3,30.12,WNW,292,3.0,8.0,34,0.00,,,0.00,meteohub,2013-10-21 19:27:00,
2013-10-21 15:32:00,65.5,36.3,30.12,SSW,202,2.0,8.0,34,0.00,,,0.00,meteohub,2013-10-21 19:32:00,
2013-10-21 15:37:00,65.5,36.3,30.09,West,270,1.0,7.0,34,0.00,,,0.00,meteohub,2013-10-21 19:37:00,
2013-10-21 15:42:00,65.5,36.3,30.09,SSE,158,4.0,7.0,34,0.00,,,0.00,meteohub,2013-10-21 19:42:00,
2013-10-21 15:47:00,65.3,36.3,30.09,NW,315,5.0,8.0,34,0.00,,,0.00,meteohub,2013-10-21 19:47:00,
2013-10-21 15:52:00,65.1,36.1,30.09,SW,225,4.0,8.0,34,0.00,,,0.00,meteohub,2013-10-21 19:52:00,
2013-10-21 15:57:00,65.1,36.1,30.09,WSW,248,4.0,7.0,34,0.00,,,0.00,meteohub,2013-10-21 19:57:00,
2013-10-21 16:02:00,65.1,36.1,30.09,NNW,338,5.0,6.0,34,0.00,,,0.00,meteohub,2013-10-21 20:02:00,
2013-10-21 16:07:00,65.1,36.1,30.09,ESE,112,2.0,6.0,34,0.00,,,0.00,meteohub,2013-10-21 20:07:00,
2013-10-21 16:12:00,65.1,36.1,30.09,WNW,292,2.0,6.0,34,0.00,,,0.00,meteohub,2013-10-21 20:12:00,
2013-10-21 16:17:00,65.1,35.4,30.09,WSW,248,3.0,6.0,33,0.00,,,0.00,meteohub,2013-10-21 20:17:00,
2013-10-21 16:22:00,65.1,36.1,30.09,NW,315,2.0,5.0,34,0.00,,,0.00,meteohub,2013-10-21 20:22:00,
2013-10-21 16:27:00,65.1,36.1,30.09,SSW,202,5.0,5.0,34,0.00,,,0.00,meteohub,2013-10-21 20:27:00,
2013-10-21 16:32:00,64.9,35.2,30.09,NNW,338,3.0,6.0,33,0.00,,,0.00,meteohub,2013-10-21 20:32:00,
2013-10-21 16:37:00,64.8,35.8,30.09,WSW,248,2.0,6.0,34,0.00,,,0.00,meteohub,2013-10-21 20:37:00,
2013-10-21 16:42:00,64.6,35.6,30.09,WNW,292,0.0,6.0,34,0.00,,,0.00,meteohub,2013-10-21 20:42:00,
2013-10-21 16:47:00,64.4,35.4,30.09,South,180,1.0,6.0,34,0.00,,,0.00,meteohub,2013-10-21 20:47:00,
2013-10-21 16:52:00,64.4,35.4,30.09,WNW,292,3.0,6.0,34,0.00,,,0.00,meteohub,2013-10-21 20:52:00,
2013-10-21 16:57:00,64.2,35.2,30.09,WSW,248,3.0,6.0,34,0.00,,,0.00,meteohub,2013-10-21 20:57:00,
2013-10-21 17:02:00,64.0,35.1,30.09,WNW,292,0.0,6.0,34,0.00,,,0.00,meteohub,2013-10-21 21:02:00,
2013-10-21 17:07:00,63.9,35.1,30.09,SE,135,1.0,6.0,34,0.00,,,0.00,meteohub,2013-10-21 21:07:00,
2013-10-21 17:12:00,63.9,35.1,30.09,SW,225,0.0,4.0,34,0.00,,,0.00,meteohub,2013-10-21 21:12:00,
2013-10-21 17:17:00,63.7,34.9,30.09,SW,225,4.0,6.0,34,0.00,,,0.00,meteohub,2013-10-21 21:17:00,
2013-10-21 17:22:00,63.5,34.7,30.09,West,270,1.0,6.0,34,0.00,,,0.00,meteohub,2013-10-21 21:22:00,
2013-10-21 17:27:00,63.1,34.3,30.09,SW,225,2.0,6.0,34,0.00,,,0.00,meteohub,2013-10-21 21:27:00,
2013-10-21 17:32:00,63.1,34.3,30.09,WSW,248,1.0,4.0,34,0.00,,,0.00,meteohub,2013-10-21 21:32:00,
2013-10-21 17:37:00,63.0,34.2,30.09,South,180,0.0,4.0,34,0.00,,,0.00,meteohub,2013-10-21 21:37:00,
2013-10-21 17:42:00,62.6,34.5,30.09,SW,225,0.0,4.0,35,0.00,,,0.00,meteohub,2013-10-21 21:42:00,
2013-10-21 17:47:00,62.1,34.2,30.09,SW,225,0.0,2.0,35,0.00,,,0.00,meteohub,2013-10-21 21:47:00,
2013-10-21 17:52:00,61.3,34.2,30.09,SSE,158,0.0,1.0,36,0.00,,,0.00,meteohub,2013-10-21 21:52:00,
2013-10-21 17:57:00,61.2,34.0,30.09,SSE,158,0.0,1.0,36,0.00,,,0.00,meteohub,2013-10-21 21:57:00,
2013-10-21 18:02:00,60.3,34.0,30.09,SE,135,1.0,2.0,37,0.00,,,0.00,meteohub,2013-10-21 22:02:00,
2013-10-21 18:07:00,59.7,34.2,30.09,SE,135,0.0,2.0,38,0.00,,,0.00,meteohub,2013-10-21 22:07:00,
2013-10-21 18:12:00,59.2,33.6,30.09,SE,135,1.0,2.0,38,0.00,,,0.00,meteohub,2013-10-21 22:12:00,
2013-10-21 18:17:00,58.8,34.0,30.09,ESE,112,2.0,2.0,39,0.00,,,0.00,meteohub,2013-10-21 22:17:00,
2013-10-21 18:22:00,58.5,34.3,30.09,ESE,112,0.0,2.0,40,0.00,,,0.00,meteohub,2013-10-21 22:22:00,
2013-10-21 18:27:00,58.1,34.5,30.09,ESE,112,0.0,2.0,41,0.00,,,0.00,meteohub,2013-10-21 22:27:00,
2013-10-21 18:32:00,57.7,34.9,30.09,ESE,112,0.0,2.0,42,0.00,,,0.00,meteohub,2013-10-21 22:32:00,
2013-10-21 18:37:00,57.6,35.2,30.09,ESE,112,0.0,2.0,43,0.00,,,0.00,meteohub,2013-10-21 22:37:00,
2013-10-21 18:42:00,57.2,34.9,30.09,SE,135,0.0,2.0,43,0.00,,,0.00,meteohub,2013-10-21 22:42:00,
2013-10-21 18:47:00,57.0,35.4,30.09,East,90,0.0,2.0,44,0.00,,,0.00,meteohub,2013-10-21 22:47:00,
2013-10-21 18:52:00,56.8,35.8,30.09,South,180,0.0,1.0,45,0.00,,,0.00,meteohub,2013-10-21 22:52:00,
2013-10-21 18:57:00,56.8,35.8,30.09,SW,225,1.0,3.0,45,0.00,,,0.00,meteohub,2013-10-21 22:57:00,
2013-10-21 19:02:00,56.3,35.2,30.09,SW,225,1.0,3.0,45,0.00,,,0.00,meteohub,2013-10-21 23:02:00,
2013-10-21 19:07:00,56.7,35.6,30.12,SSW,202,1.0,2.0,45,0.00,,,0.00,meteohub,2013-10-21 23:07:00,
2013-10-21 19:12:00,57.4,35.6,30.12,West,270,1.0,2.0,44,0.00,,,0.00,meteohub,2013-10-21 23:12:00,
2013-10-21 19:17:00,57.7,36.0,30.12,East,90,2.0,3.0,44,0.00,,,0.00,meteohub,2013-10-21 23:17:00,
2013-10-21 19:27:00,57.7,35.4,30.09,WSW,248,2.0,3.0,43,0.00,,,0.00,meteohub,2013-10-21 23:27:00,
2013-10-21 19:32:00,57.9,35.6,30.09,SSW,202,2.0,3.0,43,0.00,,,0.00,meteohub,2013-10-21 23:32:00,
2013-10-21 19:42:00,57.9,35.1,30.09,SW,225,1.0,4.0,42,0.00,,,0.00,meteohub,2013-10-21 23:42:00,
2013-10-21 19:47:00,57.7,34.9,30.09,South,180,3.0,4.0,42,0.00,,,0.00,meteohub,2013-10-21 23:47:00,
2013-10-21 19:52:00,57.6,35.2,30.09,West,270,2.0,4.0,43,0.00,,,0.00,meteohub,2013-10-21 23:52:00,
2013-10-21 19:57:00,57.6,35.2,30.09,SW,225,3.0,4.0,43,0.00,,,0.00,meteohub,2013-10-21 23:57:00,
2013-10-21 20:02:00,57.6,35.2,30.09,West,270,2.0,5.0,43,0.00,,,0.00,meteohub,2013-10-22 00:02:00,
2013-10-21 20:12:00,57.2,34.9,30.09,WSW,248,2.0,6.0,43,0.00,,,0.00,meteohub,2013-10-22 00:12:00,
2013-10-21 20:17:00,57.0,35.4,30.09,West,270,3.0,6.0,44,0.00,,,0.00,meteohub,2013-10-22 00:17:00,
2013-10-21 20:22:00,56.8,35.2,30.09,South,180,4.0,6.0,44,0.00,,,0.00,meteohub,2013-10-22 00:22:00,
2013-10-21 20:27:00,56.8,35.2,30.09,West,270,1.0,6.0,44,0.00,,,0.00,meteohub,2013-10-22 00:27:00,
2013-10-21 20:32:00,56.7,35.6,30.09,SW,225,3.0,6.0,45,0.00,,,0.00,meteohub,2013-10-22 00:32:00,
2013-10-21 20:37:00,56.5,35.4,30.09,SSW,202,4.0,5.0,45,0.00,,,0.00,meteohub,2013-10-22 00:37:00,
2013-10-21 20:42:00,56.3,35.2,30.09,ENE,68,2.0,5.0,45,0.00,,,0.00,meteohub,2013-10-22 00:42:00,
2013-10-21 20:47:00,56.1,35.1,30.09,SSW,202,3.0,4.0,45,0.00,,,0.00,meteohub,2013-10-22 00:47:00,
2013-10-21 20:52:00,55.9,35.4,30.12,West,270,1.0,4.0,46,0.00,,,0.00,meteohub,2013-10-22 00:52:00,
2013-10-21 20:57:00,55.8,35.2,30.12,South,180,1.0,4.0,46,0.00,,,0.00,meteohub,2013-10-22 00:57:00,
2013-10-21 21:02:00,55.6,35.2,30.12,WSW,248,2.0,6.0,46,0.00,,,0.00,meteohub,2013-10-22 01:02:00,
2013-10-21 21:07:00,55.4,35.6,30.09,WSW,248,1.0,6.0,47,0.00,,,0.00,meteohub,2013-10-22 01:07:00,
2013-10-21 21:12:00,55.2,36.0,30.09,SSE,158,4.0,4.0,48,0.00,,,0.00,meteohub,2013-10-22 01:12:00,
2013-10-21 21:17:00,55.0,36.3,30.09,South,180,4.0,5.0,49,0.00,,,0.00,meteohub,2013-10-22 01:17:00,
2013-10-21 21:22:00,54.9,36.1,30.09,SW,225,3.0,5.0,49,0.00,,,0.00,meteohub,2013-10-22 01:22:00,
2013-10-21 21:27:00,54.9,36.7,30.09,WSW,248,5.0,5.0,50,0.00,,,0.00,meteohub,2013-10-22 01:27:00,
2013-10-21 21:32:00,54.7,36.5,30.09,SW,225,6.0,6.0,50,0.00,,,0.00,meteohub,2013-10-22 01:32:00,
2013-10-21 21:37:00,54.7,36.9,30.12,WSW,248,4.0,6.0,51,0.00,,,0.00,meteohub,2013-10-22 01:37:00,
2013-10-21 21:42:00,54.5,36.9,30.12,SSW,202,2.0,6.0,51,0.00,,,0.00,meteohub,2013-10-22 01:42:00,
2013-10-21 21:47:00,54.5,37.2,30.12,West,270,2.0,6.0,52,0.00,,,0.00,meteohub,2013-10-22 01:47:00,
2013-10-21 21:52:00,54.3,37.0,30.12,SSW,202,4.0,6.0,52,0.00,,,0.00,meteohub,2013-10-22 01:52:00,
2013-10-21 21:57:00,54.3,37.0,30.12,SW,225,2.0,6.0,52,0.00,,,0.00,meteohub,2013-10-22 01:57:00,
2013-10-21 22:02:00,54.1,37.9,30.12,SSW,202,4.0,4.0,54,0.00,,,0.00,meteohub,2013-10-22 02:02:00,
2013-10-21 22:07:00,54.1,37.9,30.09,WSW,248,1.0,4.0,54,0.00,,,0.00,meteohub,2013-10-22 02:07:00,
2013-10-21 22:12:00,54.1,37.9,30.09,WNW,292,3.0,6.0,54,0.00,,,0.00,meteohub,2013-10-22 02:12:00,
2013-10-21 22:17:00,54.0,38.1,30.09,South,180,2.0,6.0,55,0.00,,,0.00,meteohub,2013-10-22 02:17:00,
2013-10-21 22:22:00,54.0,37.8,30.09,WSW,248,0.0,6.0,54,0.00,,,0.00,meteohub,2013-10-22 02:22:00,
2013-10-21 22:27:00,53.8,37.6,30.09,South,180,2.0,6.0,54,0.00,,,0.00,meteohub,2013-10-22 02:27:00,
2013-10-21 22:32:00,53.6,38.3,30.09,WNW,292,1.0,4.0,56,0.00,,,0.00,meteohub,2013-10-22 02:32:00,
2013-10-21 22:37:00,53.6,38.8,30.09,West,270,3.0,3.0,57,0.00,,,0.00,meteohub,2013-10-22 02:37:00,
2013-10-21 22:42:00,53.4,39.0,30.09,SW,225,1.0,3.0,58,0.00,,,0.00,meteohub,2013-10-22 02:42:00,
2013-10-21 22:47:00,53.4,39.0,30.09,SW,225,2.0,3.0,58,0.00,,,0.00,meteohub,2013-10-22 02:47:00,
2013-10-21 22:52:00,53.2,38.8,30.09,WSW,248,2.0,4.0,58,0.00,,,0.00,meteohub,2013-10-22 02:52:00,
2013-10-21 22:57:00,53.2,38.8,30.09,North,0,1.0,4.0,58,0.00,,,0.00,meteohub,2013-10-22 02:57:00,
2013-10-21 23:02:00,53.1,39.2,30.09,SSW,202,1.0,4.0,59,0.00,,,0.00,meteohub,2013-10-22 03:02:00,
2013-10-21 23:07:00,52.9,39.4,30.09,SW,225,0.0,4.0,60,0.00,,,0.00,meteohub,2013-10-22 03:07:00,
2013-10-21 23:12:00,52.7,38.8,30.09,SSW,202,0.0,3.0,59,0.00,,,0.00,meteohub,2013-10-22 03:12:00,
2013-10-21 23:17:00,52.5,38.7,30.09,SW,225,0.0,3.0,59,0.00,,,0.00,meteohub,2013-10-22 03:17:00,
2013-10-21 23:22:00,52.3,38.8,30.09,South,180,0.0,3.0,60,0.00,,,0.00,meteohub,2013-10-22 03:22:00,
2013-10-21 23:27:00,52.2,38.7,30.09,SSW,202,0.0,2.0,60,0.00,,,0.00,meteohub,2013-10-22 03:27:00,
2013-10-21 23:32:00,51.8,38.3,30.09,SSW,202,0.0,2.0,60,0.00,,,0.00,meteohub,2013-10-22 03:32:00,
2013-10-21 23:37:00,51.6,38.3,30.06,SW,225,0.0,1.0,60,0.00,,,0.00,meteohub,2013-10-22 03:37:00,
2013-10-21 23:42:00,51.3,38.3,30.06,SW,225,0.0,1.0,61,0.00,,,0.00,meteohub,2013-10-22 03:42:00,
2013-10-21 23:47:00,50.9,37.9,30.06,WSW,248,0.0,2.0,61,0.00,,,0.00,meteohub,2013-10-22 03:47:00,
2013-10-21 23:52:00,50.4,37.9,30.06,SW,225,0.0,2.0,62,0.00,,,0.00,meteohub,2013-10-22 03:52:00,
2013-10-21 23:57:00,50.2,37.8,30.06,SW,225,0.0,2.0,62,0.00,,,0.00,meteohub,2013-10-22 03:57:00,